QPF
0.02 0.02 0.03 0.03 0.04 0.03 0.03 0.03 0.04 0.05 0.03 0.03 0.03 0.02 0.03 0.04 0.05 0.04 0.02 0.02 0.01 0.01 0.01 0.01 0.01 0.01 0.01 0.01 0.01 0.01 0.01 0.01 0.01 0.02 0.02 0.02 0.02 0.02
0.03 0.04 0.05 0.06 0.05 0.04 0.03 0.03 0.03 0.04 0.04 0.02 0.02 0.02 0.02 0.02 0.03 0.03 0.03 0.02 0.01 0.01 0.01 0.01 0.01 0.01 0.01 0.01 0.01 0.01 0.01 0.01 0.01 0.02 0.02 0.02 0.02 0.02
0.03 0.03 0.04 0.06 0.06 0.04 0.03 0.02 0.03 0.03 0.03 0.02 0.02 0.02 0.03 0.03 0.03 0.03 0.04 0.04 0.02 0.02 0.02 0.02 0.02 0.01 0.01 0.01 0.01 0.01 0.01 0.01 0.01 0.01 0.01 0.01 0.01 0.01
0.02 0.02 0.03 0.03 0.04 0.04 0.03 0.02 0.02 0.03 0.03 0.02 0.02 0.03 0.05 0.05 0.05 0.05 0.05 0.05 0.04 0.04 0.04 0.03 0.03 0.03 0.02 0.02 0.01 0.01 0.01 0.01 0.01 0.01 0.01 0.01 0.01 0.01
0.02 0.02 0.02 0.03 0.03 0.03 0.03 0.02 0.02 0.02 0.02 0.02 0.02 0.03 0.03 0.04 0.04 0.04 0.04 0.04 0.04 0.05 0.06 0.06 0.05 0.04 0.04 0.04 0.03 0.02 0.01 0.01 0.01 0.01 0.01 0.01 0.01 0.01
0.02 0.02 0.02 0.02 0.03 0.03 0.03 0.02 0.02 0.02 0.02 0.02 0.02 0.02 0.03 0.02 0.02 0.03 0.03 0.03 0.03 0.03 0.04 0.05 0.06 0.06 0.05 0.04 0.03 0.02 0.02 0.01 0.01 0.01 0.01 0.01 0.01 0.01
0.01 0.02 0.02 0.03 0.03 0.03 0.03 0.03 0.02 0.02 0.02 0.02 0.02 0.02 0.02 0.02 0.02 0.02 0.02 0.02 0.02 0.03 0.03 0.03 0.03 0.03 0.03 0.03 0.02 0.02 0.02 0.01 0.01 0.01 0.01 0.01 0.01 0.02
0.02 0.01 0.01 0.02 0.03 0.03 0.04 0.03 0.03 0.02 0.02 0.02 0.02 0.01 0.01 0.01 0.01 0.01 0.01 0.01 0.01 0.01 0.01 0.02 0.03 0.03 0.02 0.02 0.02 0.02 0.02 0.01 0.01 0.01 0.01 0.01 0.01 0.01
0.02 0.01 0.01 0.01 0.01 0.02 0.03 0.04 0.03 0.03 0.03 0.02 0.02 0.02 0.01 0.01 0.01 0.01 0.01 0.02 0.01 0.01 0.01 0.01 0.02 0.02 0.02 0.02 0.02 0.01 0.01 0.01 0.01 0.01 0.01 0.01 0.01 0.01
0.01 0.01 0.01 0.01 0.01 0.01 0.02 0.02 0.03 0.02 0.02 0.02 0.02 0.02 0.01 0.01 0.02 0.02 0.02 0.02 0.01 0.01 0.01 0.02 0.01 0.01 0.01 0.02 0.02 0.01 0.01 0.01 0.02 0.02 0.01 0.01 0.01 0.01
0.01 0.01 0.02 0.01 0.01 0.01 0.01 0.01 0.02 0.02 0.02 0.02 0.02 0.02 0.02 0.02 0.02 0.02 0.03 0.03 0.03 0.02 0.02 0.02 0.01 0.01 0.02 0.02 0.02 0.02 0.02 0.02 0.02 0.02 0.01 0.01 0.01 0.01
0.01 0.01 0.02 0.02 0.02 0.02 0.02 0.02 0.02 0.02 0.02 0.02 0.03 0.02 0.03 0.03 0.03 0.03 0.03 0.04 0.04 0.03 0.02 0.02 0.02 0.02 0.02 0.02 0.01 0.02 0.02 0.02 0.02 0.01 0.01 0.01 0.01 0.01
0.01 0.01 0.01 0.02 0.02 0.02 0.02 0.02 0.02 0.02 0.02 0.03 0.03 0.03 0.03 0.03 0.03 0.03 0.03 0.03 0.03 0.03 0.02 0.02 0.02 0.02 0.03 0.02 0.01 0.01 0.02 0.01 0.01 0.01 0.01 0.01 0.01 0.01
0.02 0.01 0.01 0.01 0.01 0.02 0.02 0.02 0.02 0.02 0.02 0.02 0.02 0.02 0.02 0.02 0.02 0.02 0.02 0.02 0.03 0.03 0.02 0.03 0.03 0.03 0.03 0.03 0.02 0.01 0.01 0.01 0.01 0.01 0.01 0.02 0.02 0.01
0.02 0.02 0.02 0.02 0.02 0.01 0.02 0.02 0.01 0.01 0.01 0.02 0.02 0.02 0.01 0.01 0.01 0.01 0.01 0.01 0.02 0.02 0.02 0.02 0.02 0.02 0.03 0.03 0.03 0.02 0.02 0.02 0.02 0.02 0.03 0.03 0.02 0.02
0.01 0.01 0.02 0.02 0.01 0.01 0.01 0.01 0.01 0.01 0.01 0.02 0.02 0.02 0.01 0.01 0.01 0.01 0.01 0.01 0.01 0.01 0.02 0.02 0.02 0.02 0.03 0.02 0.03 0.02 0.02 0.03 0.03 0.03 0.03 0.03 0.03 0.03
0.02 0.01 0.01 0.01 0.01 0.01 0.01 0.01 0.01 0.02 0.02 0.02 0.02 0.01 0.01 0.01 0.01 0.01 0.01 0.01 0.01 0.01 0.01 0.01 0.02 0.02 0.03 0.03 0.03 0.03 0.03 0.03 0.03 0.03 0.02 0.02 0.02 0.02
0.02 0.01 0.01 0.01 0.01 0.01 0.01 0.02 0.02 0.02 0.03 0.02 0.01 0.01 0.01 0.01 0.01 0.01 0.01 0.01 0.01 0.01 0.01 0.01 0.01 0.01 0.02 0.03 0.03 0.03 0.03 0.03 0.03 0.02 0.03 0.03 0.03 0.02
0.02 0.01 0.01 0.01 0.01 0.01 0.02 0.02 0.02 0.03 0.03 0.02 0.02 0.02 0.02 0.02 0.01 0.01 0.01 0.01 0.01 0.01 0.01 0.02 0.02 0.02 0.02 0.02 0.02 0.02 0.02 0.02 0.02 0.03 0.03 0.03 0.03 0.03
0.02 0.02 0.02 0.02 0.02 0.02 0.02 0.02 0.02 0.02 0.03 0.03 0.02 0.02 0.02 0.02 0.02 0.01 0.01 0.02 0.02 0.02 0.02 0.01 0.02 0.02 0.03 0.03 0.03 0.02 0.02 0.02 0.02 0.02 0.02 0.02 0.02 0.02
0.01 0.01 0.01 0.02 0.02 0.02 0.02 0.02 0.02 0.02 0.02 0.02 0.02 0.02 0.02 0.02 0.02 0.02 0.02 0.02 0.02 0.02 0.01 0.01 0.01 0.02 0.03 0.03 0.03 0.02 0.02 0.02 0.02 0.02 0.02 0.02 0.02 0.02
0.01 0.01 0.01 0.01 0.02 0.02 0.02 0.02 0.02 0.02 0.02 0.02 0.02 0.02 0.01 0.02 0.02 0.02 0.02 0.02 0.02 0.02 0.01 0.01 0.01 0.02 0.02 0.02 0.02 0.01 0.01 0.01 0.01 0.01 0.02 0.02 0.03 0.03
0.02 0.02 0.01 0.01 0.01 0.02 0.02 0.02 0.02 0.02 0.02 0.02 0.01 0.02 0.02 0.02 0.02 0.02 0.02 0.03 0.03 0.02 0.02 0.02 0.02 0.02 0.02 0.01 0.01 0.01 0.01 0.01 0.01 0.01 0.01 0.01 0.02 0.02
MSLP
1021.43 1021.58 1021.70 1021.77 1021.82 1021.85 1021.87 1021.88 1021.91 1021.95 1022.01 1022.09 1022.18 1022.25 1022.29 1022.29 1022.23 1022.11 1021.93 1021.72 1021.49 1021.26 1021.07 1020.94 1020.87 1020.87 1020.95 1021.09 1021.29 1021.53 1021.79 1022.05 1022.29 1022.50 1022.67 1022.78 1022.83 1022.82
1021.68 1021.83 1021.95 1022.03 1022.08 1022.10 1022.11 1022.11 1022.13 1022.17 1022.23 1022.32 1022.41 1022.50 1022.56 1022.59 1022.56 1022.48 1022.35 1022.17 1021.96 1021.75 1021.56 1021.40 1021.29 1021.25 1021.27 1021.35 1021.49 1021.67 1021.88 1022.10 1022.33 1022.54 1022.73 1022.87 1022.95 1022.97
1021.82 1022.00 1022.13 1022.22 1022.28 1022.31 1022.33 1022.35 1022.37 1022.42 1022.49 1022.58 1022.68 1022.78 1022.86 1022.91 1022.92 1022.87 1022.77 1022.62 1022.44 1022.25 1022.06 1021.90 1021.77 1021.69 1021.65 1021.67 1021.74 1021.86 1022.02 1022.20 1022.40 1022.60 1022.78 1022.94 1023.05 1023.09
1021.90 1022.09 1022.24 1022.37 1022.45 1022.51 1022.55 1022.58 1022.62 1022.68 1022.76 1022.86 1022.97 1023.08 1023.17 1023.24 1023.26 1023.23 1023.16 1023.04 1022.89 1022.71 1022.54 1022.37 1022.22 1022.11 1022.03 1022.00 1022.01 1022.06 1022.16 1022.29 1022.45 1022.63 1022.81 1022.97 1023.10 1023.17
1021.91 1022.13 1022.32 1022.47 1022.59 1022.68 1022.74 1022.80 1022.86 1022.93 1023.02 1023.13 1023.24 1023.35 1023.45 1023.52 1023.55 1023.54 1023.48 1023.39 1023.25 1023.10 1022.93 1022.76 1022.61 1022.47 1022.35 1022.27 1022.22 1022.22 1022.25 1022.33 1022.45 1022.61 1022.77 1022.94 1023.08 1023.18
1021.89 1022.14 1022.36 1022.54 1022.69 1022.81 1022.90 1022.97 1023.05 1023.13 1023.23 1023.33 1023.45 1023.56 1023.66 1023.73 1023.77 1023.77 1023.73 1023.64 1023.52 1023.38 1023.22 1023.06 1022.89 1022.73 1022.59 1022.46 1022.36 1022.30 1022.28 1022.31 1022.39 1022.51 1022.66 1022.82 1022.98 1023.11
1021.84 1022.12 1022.37 1022.57 1022.74 1022.88 1022.98 1023.07 1023.15 1023.24 1023.34 1023.45 1023.57 1023.69 1023.79 1023.87 1023.91 1023.92 1023.89 1023.81 1023.71 1023.58 1023.43 1023.26 1023.09 1022.92 1022.74 1022.58 1022.44 1022.32 1022.25 1022.23 1022.26 1022.35 1022.48 1022.64 1022.81 1022.97
1021.77 1022.06 1022.32 1022.55 1022.73 1022.87 1022.97 1023.07 1023.16 1023.25 1023.35 1023.47 1023.60 1023.73 1023.84 1023.94 1024.00 1024.02 1024.00 1023.94 1023.85 1023.73 1023.58 1023.42 1023.24 1023.05 1022.86 1022.66 1022.48 1022.32 1022.20 1022.13 1022.11 1022.16 1022.27 1022.42 1022.59 1022.77
1021.66 1021.96 1022.23 1022.46 1022.64 1022.77 1022.88 1022.97 1023.06 1023.16 1023.28 1023.41 1023.56 1023.72 1023.85 1023.97 1024.06 1024.10 1024.11 1024.07 1023.99 1023.88 1023.74 1023.57 1023.39 1023.19 1022.97 1022.75 1022.54 1022.34 1022.17 1022.05 1021.99 1022.00 1022.07 1022.19 1022.36 1022.55
1021.52 1021.83 1022.09 1022.31 1022.49 1022.62 1022.73 1022.82 1022.92 1023.03 1023.17 1023.33 1023.51 1023.70 1023.87 1024.03 1024.15 1024.22 1024.25 1024.22 1024.16 1024.05 1023.92 1023.76 1023.57 1023.36 1023.13 1022.89 1022.65 1022.42 1022.21 1022.05 1021.93 1021.89 1021.92 1022.02 1022.16 1022.34
1021.36 1021.66 1021.93 1022.15 1022.33 1022.46 1022.57 1022.67 1022.78 1022.92 1023.08 1023.28 1023.50 1023.73 1023.94 1024.13 1024.29 1024.39 1024.43 1024.42 1024.37 1024.27 1024.14 1023.97 1023.78 1023.57 1023.34 1023.09 1022.83 1022.57 1022.33 1022.13 1021.97 1021.88 1021.86 1021.91 1022.01 1022.17
1021.21 1021.51 1021.79 1022.01 1022.20 1022.34 1022.47 1022.59 1022.72 1022.89 1023.09 1023.32 1023.57 1023.83 1024.08 1024.30 1024.47 1024.59 1024.65 1024.64 1024.58 1024.49 1024.35 1024.18 1023.99 1023.78 1023.55 1023.30 1023.03 1022.77 1022.51 1022.27 1022.08 1021.94 1021.87 1021.86 1021.92 1022.03
1021.08 1021.41 1021.70 1021.95 1022.16 1022.33 1022.48 1022.63 1022.79 1022.98 1023.21 1023.46 1023.74 1024.02 1024.28 1024.51 1024.68 1024.79 1024.84 1024.82 1024.75 1024.64 1024.49 1024.33 1024.14 1023.93 1023.71 1023.47 1023.21 1022.95 1022.68 1022.43 1022.21 1022.04 1021.92 1021.86 1021.86 1021.92
1021.00 1021.37 1021.70 1021.99 1022.24 1022.45 1022.63 1022.81 1023.00 1023.21 1023.45 1023.71 1023.99 1024.26 1024.50 1024.71 1024.85 1024.94 1024.95 1024.90 1024.81 1024.67 1024.51 1024.33 1024.15 1023.95 1023.74 1023.52 1023.29 1023.04 1022.79 1022.54 1022.31 1022.11 1021.95 1021.85 1021.81 1021.81
1020.98 1021.40 1021.79 1022.14 1022.43 1022.69 1022.91 1023.12 1023.33 1023.54 1023.77 1024.02 1024.26 1024.49 1024.70 1024.85 1024.94 1024.97 1024.93 1024.84 1024.70 1024.54 1024.36 1024.17 1023.98 1023.80 1023.61 1023.42 1023.21 1023.00 1022.77 1022.53 1022.31 1022.10 1021.92 1021.79 1021.70 1021.66
1021.02 1021.50 1021.95 1022.35 1022.71 1023.01 1023.26 1023.49 1023.70 1023.91 1024.12 1024.32 1024.51 1024.68 1024.81 1024.89 1024.91 1024.87 1024.77 1024.62 1024.44 1024.23 1024.03 1023.83 1023.65 1023.47 1023.31 1023.14 1022.97 1022.78 1022.58 1022.37 1022.16 1021.96 1021.78 1021.63 1021.52 1021.45
1021.07 1021.62 1022.13 1022.59 1022.99 1023.33 1023.62 1023.86 1024.06 1024.24 1024.41 1024.55 1024.68 1024.77 1024.82 1024.81 1024.75 1024.64 1024.47 1024.27 1024.04 1023.81 1023.58 1023.37 1023.18 1023.01 1022.85 1022.71 1022.56 1022.40 1022.23 1022.05 1021.86 1021.67 1021.50 1021.35 1021.23 1021.14
1021.12 1021.72 1022.28 1022.79 1023.23 1023.60 1023.89 1024.13 1024.32 1024.47 1024.59 1024.68 1024.73 1024.75 1024.72 1024.64 1024.50 1024.33 1024.10 1023.85 1023.59 1023.32 1023.07 1022.84 1022.64 1022.47 1022.32 1022.18 1022.04 1021.90 1021.75 1021.58 1021.41 1021.25 1021.09 1020.94 1020.83 1020.74
1021.12 1021.77 1022.36 1022.90 1023.36 1023.74 1024.04 1024.27 1024.45 1024.57 1024.64 1024.68 1024.67 1024.62 1024.53 1024.39 1024.21 1023.98 1023.72 1023.44 1023.15 1022.86 1022.59 1022.34 1022.12 1021.92 1021.75 1021.60 1021.45 1021.31 1021.17 1021.01 1020.86 1020.71 1020.57 1020.44 1020.33 1020.25
1021.08 1021.74 1022.35 1022.90 1023.36 1023.74 1024.04 1024.26 1024.42 1024.51 1024.56 1024.56 1024.51 1024.43 1024.30 1024.13 1023.91 1023.66 1023.38 1023.08 1022.77 1022.45 1022.16 1021.88 1021.63 1021.40 1021.20 1021.01 1020.85 1020.68 1020.53 1020.38 1020.23 1020.09 1019.97 1019.86 1019.77 1019.70
1021.00 1021.66 1022.26 1022.79 1023.25 1023.62 1023.90 1024.11 1024.26 1024.34 1024.37 1024.35 1024.29 1024.19 1024.05 1023.86 1023.64 1023.37 1023.08 1022.77 1022.44 1022.10 1021.78 1021.47 1021.17 1020.90 1020.65 1020.42 1020.21 1020.02 1019.84 1019.69 1019.54 1019.42 1019.31 1019.23 1019.16 1019.11
1020.90 1021.53 1022.11 1022.61 1023.05 1023.40 1023.67 1023.87 1024.01 1024.08 1024.11 1024.09 1024.03 1023.93 1023.78 1023.60 1023.37 1023.10 1022.80 1022.47 1022.12 1021.75 1021.39 1021.03 1020.69 1020.36 1020.05 1019.77 1019.52 1019.30 1019.11 1018.94 1018.81 1018.70 1018.63 1018.57 1018.53 1018.51
1020.80 1021.39 1021.93 1022.40 1022.80 1023.13 1023.38 1023.57 1023.71 1023.79 1023.82 1023.81 1023.75 1023.65 1023.51 1023.32 1023.08 1022.80 1022.48 1022.12 1021.73 1021.33 1020.91 1020.50 1020.10 1019.71 1019.35 1019.03 1018.74 1018.49 1018.29 1018.13 1018.02 1017.95 1017.91 1017.90 1017.90 1017.92
Thickness
5499 5500 5501 5502 5502 5503 5504 5504 5503 5503 5506 5506 5506 5508 5507 5508 5509 5509 5509 5509 5509 5509 5508 5508 5507 5507 5506 5506 5505 5504 5503 5502 5502 5501 5500 5500 5500 5500
5487 5489 5490 5491 5492 5492 5493 5493 5493 5493 5495 5497 5496 5497 5497 5497 5498 5498 5498 5498 5498 5498 5497 5497 5496 5496 5495 5494 5493 5493 5492 5491 5490 5490 5490 5489 5489 5488
5476 5478 5479 5480 5481 5481 5482 5482 5482 5482 5483 5484 5485 5486 5486 5486 5487 5487 5486 5486 5486 5486 5486 5486 5485 5484 5483 5482 5481 5481 5481 5480 5479 5478 5478 5478 5477 5477
5466 5467 5468 5470 5470 5471 5471 5471 5471 5471 5472 5473 5473 5473 5474 5475 5475 5474 5474 5474 5474 5474 5474 5474 5473 5473 5471 5470 5470 5469 5468 5467 5467 5466 5466 5466 5466 5465
5455 5456 5457 5458 5459 5459 5460 5460 5460 5461 5461 5461 5461 5461 5461 5462 5462 5462 5462 5462 5462 5462 5462 5462 5461 5461 5460 5458 5457 5457 5456 5456 5455 5455 5454 5453 5453 5453
5444 5445 5446 5447 5448 5448 5449 5449 5449 5448 5449 5449 5449 5449 5449 5449 5449 5450 5450 5449 5449 5450 5450 5450 5449 5448 5447 5446 5446 5445 5444 5443 5443 5443 5442 5442 5441 5441
5432 5433 5434 5436 5437 5438 5438 5438 5438 5437 5438 5438 5438 5438 5437 5437 5437 5437 5438 5437 5437 5437 5437 5437 5436 5436 5435 5435 5434 5434 5433 5432 5432 5432 5431 5431 5431 5430
5421 5421 5422 5424 5425 5426 5428 5428 5428 5428 5428 5427 5427 5427 5427 5426 5425 5425 5424 5425 5425 5425 5424 5425 5424 5424 5424 5424 5423 5423 5423 5422 5422 5422 5421 5421 5421 5421
5409 5410 5411 5412 5413 5414 5414 5415 5416 5416 5417 5417 5416 5416 5416 5416 5414 5413 5412 5411 5413 5412 5411 5414 5413 5413 5413 5413 5413 5413 5413 5413 5413 5413 5412 5412 5412 5412
5399 5399 5399 5400 5401 5401 5402 5402 5402 5403 5405 5406 5407 5406 5405 5404 5403 5402 5400 5399 5399 5399 5398 5400 5401 5402 5403 5403 5403 5403 5403 5403 5403 5403 5403 5403 5403 5403
5388 5388 5389 5389 5390 5391 5391 5390 5390 5391 5392 5393 5394 5394 5393 5393 5392 5390 5388 5387 5388 5388 5387 5387 5389 5390 5392 5393 5393 5393 5393 5393 5393 5394 5394 5394 5394 5394
5378 5378 5379 5380 5380 5380 5379 5379 5379 5380 5380 5380 5380 5381 5380 5380 5380 5379 5378 5376 5376 5377 5377 5376 5376 5376 5379 5382 5383 5383 5383 5383 5384 5384 5385 5385 5384 5384
5368 5369 5369 5370 5370 5370 5370 5370 5371 5371 5370 5369 5368 5369 5369 5368 5368 5368 5367 5367 5366 5367 5368 5366 5366 5365 5365 5369 5372 5373 5373 5374 5374 5375 5375 5376 5376 5375
5360 5360 5360 5360 5361 5361 5361 5362 5362 5361 5360 5359 5358 5358 5357 5357 5357 5357 5357 5357 5358 5359 5359 5358 5357 5357 5357 5359 5361 5364 5364 5365 5366 5367 5367 5368 5368 5367
5351 5352 5352 5352 5352 5352 5352 5352 5352 5351 5350 5350 5349 5348 5348 5347 5347 5347 5348 5348 5349 5350 5351 5351 5350 5350 5350 5351 5353 5354 5356 5357 5358 5358 5359 5359 5360 5360
5344 5344 5345 5344 5343 5343 5342 5341 5341 5342 5341 5341 5340 5339 5338 5338 5339 5339 5339 5340 5341 5342 5342 5343 5343 5343 5343 5345 5345 5346 5347 5347 5349 5349 5350 5352 5353 5353
5337 5337 5336 5336 5335 5334 5334 5333 5333 5333 5333 5332 5331 5330 5330 5330 5331 5331 5331 5332 5332 5333 5334 5335 5336 5336 5337 5338 5339 5340 5340 5340 5341 5342 5343 5345 5347 5348
5331 5330 5329 5328 5327 5327 5326 5326 5325 5325 5324 5324 5324 5324 5323 5323 5323 5324 5325 5325 5325 5326 5327 5328 5328 5330 5331 5332 5333 5334 5334 5334 5335 5336 5337 5338 5341 5342
5324 5322 5321 5320 5320 5319 5318 5318 5318 5317 5317 5317 5317 5317 5317 5317 5317 5318 5318 5319 5319 5319 5320 5320 5321 5321 5323 5324 5327 5328 5328 5329 5329 5330 5331 5333 5335 5337
5316 5315 5314 5314 5313 5312 5312 5311 5311 5310 5310 5310 5310 5311 5311 5311 5311 5311 5312 5312 5313 5313 5314 5314 5314 5315 5315 5317 5318 5320 5322 5322 5323 5325 5326 5327 5329 5331
5309 5308 5307 5307 5307 5306 5306 5305 5305 5305 5305 5305 5305 5305 5305 5305 5306 5306 5306 5307 5308 5308 5308 5309 5310 5310 5310 5311 5312 5314 5316 5317 5318 5319 5321 5322 5324 5325
5302 5301 5301 5301 5301 5300 5300 5300 5300 5301 5300 5300 5301 5301 5301 5301 5301 5301 5301 5302 5303 5303 5304 5305 5305 5306 5306 5307 5307 5308 5310 5312 5314 5315 5316 5317 5317 5319
5295 5295 5295 5295 5295 5295 5296 5296 5297 5297 5296 5296 5297 5297 5297 5297 5297 5297 5298 5298 5299 5299 5299 5300 5301 5301 5302 5302 5302 5303 5304 5306 5309 5310 5312 5313 5314 5315